When you browse on this site, cookies collect data to enhance your experience and personalize the content and advertising you see.
Visit our Privacy Policy to learn more. By continuing to use the site, you agree to this use of cookies and data.
  • In Lithuania
  • List of Countries
  • For 7 days
  • Water Temperature
  • Satellite Maps
  • Weather Map
  • Weather Widgets
  • user-avatar
    Login

    Hourly Weather Valencia

    Today, 20 November, Tuesday

    Time Temperature Precipitation Wind Pressure Humidity
    00:00 +24°C° 0 mm 1 mps 717 mmHg 94%
    01:00 +24°C° 0 mm 2 mps 717 mmHg 94%
    02:00 +23°C° 0 mm 1 mps 717 mmHg 94%
    03:00 +23°C° 0 mm 1 mps 717 mmHg 94%
    04:00 +23°C° 0 mm 1 mps 717 mmHg 94%
    05:00 +24°C° 0 mm 1 mps 717 mmHg 91%
    06:00 +25°C° 0 mm 1 mps 718 mmHg 88%
    07:00 +24°C° 0 mm 0 mps 718 mmHg 82%
    08:00 +28°C° 0 mm 1 mps 719 mmHg 73%
    09:00 +30°C° 0 mm 1 mps 719 mmHg 64%
    10:00 +32°C° 0 mm 1 mps 719 mmHg 55%
    11:00 +32°C° 0.1 mm 2 mps 718 mmHg 55%
    12:00 +32°C° 0.1 mm 2 mps 718 mmHg 55%
    13:00 +32°C° 0.1 mm 2 mps 717 mmHg 55%
    14:00 +31°C° 0.3 mm 2 mps 717 mmHg 63%
    15:00 +30°C° 0.3 mm 2 mps 716 mmHg 70%
    16:00 +29°C° 0.3 mm 2 mps 716 mmHg 77%
    17:00 +27°C° 0.6 mm 2 mps 716 mmHg 83%
    18:00 +26°C° 0.6 mm 2 mps 717 mmHg 88%
    19:00 +24°C° 0.6 mm 2 mps 717 mmHg 93%
    20:00 +24°C° 0.1 mm 2 mps 717 mmHg 93%
    21:00 +24°C° 0.1 mm 2 mps 718 mmHg 94%
    22:00 +24°C° 0.1 mm 2 mps 718 mmHg 94%
    23:00 +24°C° 0.1 mm 2 mps 718 mmHg 94%

    Tomorrow, 21 November, Wednesday

    Time Temperature Precipitation Wind Pressure Humidity
    00:00 +24°C° 0.1 mm 2 mps 718 mmHg 94%
    01:00 +24°C° 0.1 mm 2 mps 717 mmHg 94%
    02:00 +24°C° 0 mm 2 mps 717 mmHg 94%
    03:00 +23°C° 0 mm 1 mps 717 mmHg 94%
    04:00 +23°C° 0 mm 1 mps 717 mmHg 94%
    05:00 +24°C° 0 mm 1 mps 718 mmHg 92%
    06:00 +25°C° 0 mm 1 mps 718 mmHg 89%
    07:00 +26°C° 0 mm 1 mps 719 mmHg 86%
    08:00 +27°C° 0.1 mm 1 mps 719 mmHg 79%
    09:00 +29°C° 0.1 mm 2 mps 719 mmHg 72%
    10:00 +30°C° 0.1 mm 2 mps 720 mmHg 65%
    11:00 +30°C° 0.4 mm 2 mps 719 mmHg 66%
    12:00 +30°C° 0.4 mm 2 mps 718 mmHg 67%
    13:00 +30°C° 0.4 mm 2 mps 717 mmHg 68%
    14:00 +30°C° 0.4 mm 2 mps 717 mmHg 72%
    15:00 +29°C° 0.4 mm 2 mps 716 mmHg 76%
    16:00 +28°C° 0.4 mm 2 mps 716 mmHg 80%
    17:00 +27°C° 0.1 mm 2 mps 716 mmHg 85%
    18:00 +26°C° 0.1 mm 2 mps 716 mmHg 89%
    19:00 +24°C° 0.1 mm 2 mps 717 mmHg 93%
    20:00 +24°C° 0 mm 2 mps 717 mmHg 94%
    21:00 +24°C° 0 mm 2 mps 717 mmHg 94%
    22:00 +24°C° 0 mm 2 mps 718 mmHg 95%
    23:00 +23°C° 0 mm 2 mps 718 mmHg 95%

    Day after tomorrow, 22 November, Thursday

    Time Temperature Precipitation Wind Pressure Humidity
    00:00 +23°C° 0 mm 2 mps 717 mmHg 95%
    01:00 +23°C° 0 mm 2 mps 717 mmHg 94%
    02:00 +23°C° 0 mm 2 mps 717 mmHg 94%
    03:00 +22°C° 0 mm 1 mps 717 mmHg 94%
    04:00 +22°C° 0 mm 1 mps 717 mmHg 94%
    05:00 +23°C° 0 mm 1 mps 717 mmHg 91%
    06:00 +23°C° 0 mm 1 mps 718 mmHg 89%
    07:00 +24°C° 0 mm 1 mps 718 mmHg 86%
    08:00 +26°C° 0 mm 1 mps 718 mmHg 73%
    09:00 +29°C° 0 mm 1 mps 719 mmHg 61%
    10:00 +31°C° 0 mm 1 mps 719 mmHg 48%
    11:00 +32°C° 0 mm 1 mps 718 mmHg 46%
    12:00 +32°C° 0 mm 2 mps 717 mmHg 43%
    13:00 +34°C° 0 mm 2 mps 717 mmHg 41%
    14:00 +32°C° 0 mm 2 mps 716 mmHg 47%
    15:00 +31°C° 0 mm 2 mps 716 mmHg 53%
    16:00 +29°C° 0 mm 2 mps 715 mmHg 59%
    17:00 +28°C° 0 mm 2 mps 715 mmHg 68%
    18:00 +26°C° 0 mm 2 mps 716 mmHg 77%
    19:00 +24°C° 0 mm 2 mps 716 mmHg 86%
    20:00 +24°C° 0 mm 2 mps 717 mmHg 88%
    21:00 +24°C° 0 mm 2 mps 717 mmHg 90%
    22:00 +23°C° 0 mm 2 mps 717 mmHg 92%
    23:00 +23°C° 0 mm 2 mps 717 mmHg 92%

    23 November, Friday

    Time Temperature Precipitation Wind Pressure Humidity
    00:00 +23°C° 0 mm 1 mps 717 mmHg 93%
    01:00 +23°C° 0 mm 1 mps 716 mmHg 93%
    02:00 +23°C° 0 mm 1 mps 716 mmHg 93%
    03:00 +22°C° 0 mm 1 mps 716 mmHg 93%
    04:00 +22°C° 0 mm 1 mps 716 mmHg 93%
    05:00 +23°C° 0 mm 1 mps 716 mmHg 90%
    06:00 +24°C° 0 mm 1 mps 717 mmHg 86%
    07:00 +25°C° 0 mm 1 mps 717 mmHg 83%
    08:00 +27°C° 0 mm 1 mps 718 mmHg 74%
    09:00 +29°C° 0 mm 1 mps 718 mmHg 64%
    10:00 +30°C° 0 mm 1 mps 718 mmHg 55%
    11:00 +31°C° 0 mm 1 mps 718 mmHg 54%
    12:00 +32°C° 0 mm 2 mps 717 mmHg 52%
    13:00 +32°C° 0 mm 2 mps 716 mmHg 50%
    14:00 +31°C° 0.2 mm 2 mps 715 mmHg 56%
    15:00 +30°C° 0.2 mm 1 mps 715 mmHg 62%
    16:00 +29°C° 0.2 mm 1 mps 714 mmHg 68%
    17:00 +27°C° 0.1 mm 1 mps 715 mmHg 74%
    18:00 +26°C° 0.1 mm 1 mps 715 mmHg 80%
    19:00 +25°C° 0.1 mm 2 mps 716 mmHg 86%
    20:00 +24°C° 0 mm 1 mps 716 mmHg 87%
    21:00 +24°C° 0 mm 1 mps 717 mmHg 89%
    22:00 +24°C° 0 mm 1 mps 717 mmHg 91%
    23:00 +24°C° 0 mm 1 mps 717 mmHg 91%

    24 November, Saturday

    Time Temperature Precipitation Wind Pressure Humidity
    00:00 +24°C° 0 mm 1 mps 716 mmHg 92%
    01:00 +24°C° 0 mm 1 mps 716 mmHg 92%
    02:00 +23°C° 0 mm 1 mps 716 mmHg 93%
    03:00 +23°C° 0 mm 1 mps 716 mmHg 93%
    04:00 +23°C° 0 mm 1 mps 716 mmHg 93%
    05:00 +24°C° 0 mm 1 mps 716 mmHg 90%
    06:00 +24°C° 0 mm 1 mps 717 mmHg 87%
    07:00 +25°C° 0 mm 1 mps 718 mmHg 84%
    08:00 +27°C° 0 mm 1 mps 718 mmHg 76%
    09:00 +28°C° 0 mm 1 mps 718 mmHg 67%
    10:00 +30°C° 0 mm 1 mps 718 mmHg 59%
    11:00 +31°C° 0.1 mm 1 mps 718 mmHg 59%
    12:00 +31°C° 0.1 mm 1 mps 717 mmHg 59%
    13:00 +31°C° 0.1 mm 2 mps 716 mmHg 59%
    14:00 +30°C° 0.3 mm 2 mps 716 mmHg 63%
    15:00 +29°C° 0.3 mm 1 mps 715 mmHg 68%
    16:00 +28°C° 0.3 mm 1 mps 715 mmHg 73%
    17:00 +27°C° 0 mm 1 mps 715 mmHg 77%
    18:00 +26°C° 0 mm 1 mps 716 mmHg 82%
    19:00 +24°C° 0 mm 1 mps 716 mmHg 87%
    20:00 +24°C° 0 mm 1 mps 717 mmHg 88%
    21:00 +24°C° 0 mm 1 mps 717 mmHg 89%
    22:00 +24°C° 0 mm 1 mps 717 mmHg 90%
    23:00 +23°C° 0 mm 1 mps 717 mmHg 91%

    25 November, Sunday

    Time Temperature Precipitation Wind Pressure Humidity
    00:00 +23°C° 0 mm 1 mps 716 mmHg 92%
    01:00 +23°C° 0 mm 1 mps 716 mmHg 93%
    02:00 +23°C° 0 mm 1 mps 716 mmHg 93%
    03:00 +23°C° 0 mm 1 mps 716 mmHg 94%
    04:00 +23°C° 0 mm 1 mps 716 mmHg 94%
    05:00 +24°C° 0 mm 1 mps 717 mmHg 91%
    06:00 +24°C° 0 mm 1 mps 717 mmHg 88%
    07:00 +25°C° 0 mm 1 mps 718 mmHg 84%
    08:00 +27°C° 0.1 mm 1 mps 718 mmHg 74%
    09:00 +30°C° 0.1 mm 1 mps 718 mmHg 64%
    10:00 +32°C° 0.1 mm 1 mps 719 mmHg 54%
    11:00 +32°C° 0.1 mm 1 mps 718 mmHg 54%
    12:00 +32°C° 0.1 mm 1 mps 717 mmHg 54%
    13:00 +32°C° 0.1 mm 2 mps 716 mmHg 55%
    14:00 +31°C° 0.1 mm 2 mps 716 mmHg 60%
    15:00 +30°C° 0.1 mm 2 mps 715 mmHg 65%
    16:00 +29°C° 0.1 mm 2 mps 715 mmHg 70%
    17:00 +28°C° 0.4 mm 2 mps 715 mmHg 76%
    18:00 +26°C° 0.4 mm 2 mps 716 mmHg 82%
    19:00 +25°C° 0.4 mm 2 mps 716 mmHg 89%
    20:00 +25°C° 0 mm 2 mps 717 mmHg 90%
    21:00 +25°C° 0 mm 2 mps 717 mmHg 91%
    22:00 +24°C° 0 mm 2 mps 717 mmHg 92%
    23:00 +24°C° 0 mm 2 mps 717 mmHg 93%
    Show more